This demonstration page uses our WeatherBlox Daily Observations layout. Learn more.

Left ArrowRight Arrow

Hourly Observations for August 1, 2017

Temp ( °F °C ) Dew Point ( °F °C ) Humidity (%) Winds ( mph kmh ) Pressure ( in mb ) Visibility ( mi km ) Precip ( " mm )
12:53 am 00:53 Clear with Smoke 81 27.2 57 13.9 44 44 Calm 29.89 1012 10 16 0.00 0.00
1:53 am 01:53 Clear with Smoke 78 25.6 58 14.4 50 50 Calm 29.88 1012 10 16 0.00 0.00
2:53 am 02:53 Clear with Smoke 77 25 60 15.6 56 56 Calm 29.88 1012 10 16 0.00 0.00
3:53 am 03:53 Clear with Smoke 77 25 60 15.6 56 56 Calm 29.87 1012 10 16 0.00 0.00
4:53 am 04:53 Clear with Smoke 74 23.3 61 16.1 64 64 Calm 29.86 1011 10 16 0.00 0.00
5:53 am 05:53 Clear with Smoke 75 23.9 61 16.1 62 62 Calm 29.86 1011 10 16 0.00 0.00
6:53 am 06:53 Sunny 75 24 61 16 61 61 NNW 3 6 29.88 1012 10 16 0.00 0.00
7:53 am 07:53 Sunny 80 26.7 62 16.7 54 54 Calm 29.85 1011 8 13 0.00 0.00
8:53 am 08:53 Sunny 85 29.4 60 15.6 43 43 Calm 29.85 1011 7 11 0.00 0.00
9:53 am 09:53 Sunny 88 31.1 60 15.6 39 39 Calm 29.83 1010 10 16 0.00 0.00
10:53 am 10:53 Sunny with Smoke 94 34.4 59 15 31 31 VRB 3 6 29.82 1010 7 11 0.00 0.00
11:53 am 11:53 Sunny with Smoke 99 37.2 59 15 27 27 SSE 5 7 29.80 1009 7 11 0.00 0.00
12:53 pm 12:53 Sunny with Smoke 104 40 54 12.2 19 19 Calm 29.78 1009 8 13 0.00 0.00
1:53 pm 13:53 Sunny with Smoke 108 42.2 55 12.8 17 17 S 8 13 29.76 1008 8 13 0.00 0.00
2:53 pm 14:53 Sunny with Smoke 110 43.3 54 12.2 16 16 S 3 6 29.74 1007 7 11 0.00 0.00
3:53 pm 15:53 Sunny with Smoke 112 44.4 52 11.1 14 14 VRB 5 7 29.71 1006 7 11 0.00 0.00
4:48 pm 16:48 Sunny with Smoke 111 44 52 11 14 14 VRB 5 7 29.71 1006 7 11 0.00 0.00
4:53 pm 16:53 Sunny with Smoke 113 45 45 7.2 10 10 S 8 13 29.70 1006 8 13 0.00 0.00
5:53 pm 17:53 Sunny with Smoke 111 43.9 56 13.3 16 16 SSE 13 20 29.69 1005 8 13 0.00 0.00
6:53 pm 18:53 Sunny with Smoke 105 40.6 64 17.8 26 26 SSE 14 22 29.70 1006 8 13 0.00 0.00
7:53 pm 19:53 Sunny with Smoke 98 36.7 62 16.7 31 31 S 8 13 29.72 1006 8 13 0.00 0.00
8:53 pm 20:53 Clear with Smoke 93 33.9 61 16.1 34 34 ESE 3 6 29.75 1007 10 16 0.00 0.00
9:53 pm 21:53 Clear with Smoke 90 32.2 63 17.2 41 41 E 3 6 29.78 1009 10 16 0.00 0.00
10:53 pm 22:53 Clear with Smoke 88 31.1 64 17.8 45 45 N 6 9 29.80 1009 10 16 0.00 0.00
11:53 pm 23:53 Clear with Smoke 86 30 65 18.3 49 49 N 5 7 29.82 1010 10 16 0.00 0.00

Powered by AerisWeather